Temp
8 8 8 8 8 8 8 9 12 12 12 13 13 13 13 13 13 13 12 19 19 19 19 19 20 21 21 21 23 24 20 22 23 24 25 27 27 29 31 30 31 32 33 33 32
7 7 7 7 7 7 8 10 12 12 13 13 13 13 13 12 11 10 19 19 19 19 19 19 19 20 19 21 21 20 17 21 24 25 25 27 27 28 29 28 29 30 32 33 31
7 7 7 7 8 8 10 10 12 13 13 13 13 13 13 11 11 18 19 20 19 18 18 18 19 19 20 20 21 21 21 23 24 25 25 26 26 28 27 27 28 29 30 31 29
7 7 7 7 7 9 10 11 12 13 13 13 13 13 13 12 18 20 21 20 19 18 18 19 19 19 20 20 21 20 22 23 24 25 25 25 26 27 28 28 28 29 31 31 29
8 8 8 8 8 9 10 10 11 12 13 13 13 13 13 13 15 21 21 21 19 19 18 18 18 19 19 20 20 20 22 23 23 24 24 25 25 26 27 28 29 30 30 30 30
8 8 8 8 8 7 9 12 13 13 13 13 12 12 11 15 21 22 22 20 20 19 20 18 20 20 19 19 19 20 20 20 22 22 23 24 25 26 28 29 29 29 30 29 31
7 7 7 7 8 8 9 12 14 14 14 13 13 11 12 14 21 21 21 21 21 21 21 22 22 21 19 18 19 19 19 19 21 23 23 24 24 25 27 27 28 28 29 30 29
9 9 9 7 7 7 9 14 15 15 14 13 13 11 12 21 21 21 22 23 23 23 23 23 23 20 19 19 18 18 18 18 21 22 23 23 23 26 26 26 27 27 28 30 28
9 10 10 9 8 8 11 15 16 15 15 13 12 12 14 20 21 22 23 22 22 23 23 23 21 19 19 17 15 16 16 17 19 21 21 22 22 24 24 25 26 27 25 28 29
9 10 10 9 10 10 14 16 16 15 15 13 14 13 16 20 22 23 23 23 22 21 20 21 17 17 15 15 15 17 17 18 19 21 21 21 20 22 23 23 23 23 25 26 28
9 10 11 11 12 11 15 16 14 14 15 16 16 17 19 21 23 23 23 23 21 19 18 18 16 16 16 16 18 18 18 18 20 21 21 20 20 21 21 22 21 21 23 23 25
10 10 11 12 13 14 13 12 17 18 14 17 18 18 20 20 21 22 23 21 20 18 18 16 16 19 20 20 19 18 18 18 19 21 21 20 20 21 21 21 21 21 21 22 23
10 10 11 13 15 15 14 16 18 19 14 17 19 19 20 21 20 20 22 21 19 18 18 16 17 19 20 19 19 18 17 17 17 18 19 19 19 20 21 21 21 21 21 21 21
9 10 10 12 15 14 15 17 18 18 12 17 20 21 22 21 20 22 22 20 20 18 18 17 18 19 19 18 18 17 17 17 17 16 15 18 16 18 20 20 20 21 20 20 20
9 10 10 11 13 12 16 17 18 17 14 20 20 22 22 20 21 22 22 20 18 18 18 17 18 17 18 18 18 17 17 17 17 16 15 16 14 18 19 19 20 21 21 20 20
10 11 10 11 12 16 16 17 17 13 15 20 21 21 20 20 20 22 21 21 20 18 18 18 20 18 18 18 18 17 16 15 14 14 13 16 15 17 18 19 20 19 17 18 18
11 12 13 12 14 16 16 14 13 13 21 19 19 20 19 19 20 21 20 20 17 17 17 17 18 19 18 17 16 16 13 11 11 12 13 16 15 17 18 16 14 15 15 16 16
12 14 14 15 16 16 15 12 14 18 18 20 19 19 19 18 19 19 18 17 17 17 14 13 14 18 17 17 16 15 13 9 11 13 13 15 14 15 15 15 15 16 15 16 15
14 15 15 16 16 16 10 11 14 17 18 18 18 18 17 18 17 17 17 17 17 15 14 13 14 17 18 18 17 15 13 13 10 12 12 13 15 17 16 15 15 16 16 15 16
11 12 15 16 16 15 10 13 16 18 19 18 15 17 16 16 16 15 16 17 17 16 15 14 12 17 17 17 17 15 15 12 9 11 12 14 15 14 14 14 14 15 15 15 15
11 11 16 16 16 10 10 13 16 18 19 17 16 15 16 15 15 15 16 16 17 16 14 12 12 14 15 14 14 14 13 12 11 11 13 12 13 13 13 14 13 13 14 14 14
7 12 17 17 11 9 12 15 16 17 17 18 17 16 15 15 14 15 14 16 16 15 13 11 10 10 13 15 15 14 13 11 10 12 11 12 12 16 13 13 13 13 14 14 14
6 8 16 17 8 9 12 15 16 16 16 14 15 16 16 14 13 14 15 16 16 14 13 12 9 10 12 14 13 13 13 13 12 11 11 12 12 15 13 12 13 12 13 14 14
6 9 9 8 9 12 11 12 14 16 16 14 14 14 13 13 13 12 13 15 15 15 14 11 10 10 11 13 13 11 12 13 12 10 12 13 13 15 16 15 14 13 14 15 15
6 8 8 7 9 8 10 12 13 14 14 14 13 13 11 10 10 11 12 13 14 14 10 10 11 11 12 12 13 12 12 13 13 13 12 14 14 15 14 15 14 14 18 16 17
6 5 5 5 7 9 10 11 12 13 13 13 12 12 12 10 10 10 10 11 10 12 12 10 10 11 11 13 13 13 13 14 15 15 14 14 13 16 15 15 15 16 18 18 18
9 9 8 6 7 9 9 9 11 11 12 13 11 11 11 11 12 11 11 11 11 11 10 9 9 10 11 13 13 12 14 14 14 15 13 12 13 13 13 13 14 13 14 15 16
Height
822 818 815 812 809 806 803 800 798 796 793 791 790 787 783 780 775 773 771 765 764 764 765 764 763 761 762 763 761 760 783 778 771 768 753 738 744 724 724 726 716 710 700 687 697
820 817 813 810 807 804 801 798 795 793 791 790 788 785 781 777 773 770 762 761 761 762 762 762 762 761 764 763 762 769 783 769 752 751 751 744 737 733 735 732 721 718 702 696 704
819 815 811 808 804 801 798 795 793 791 789 787 785 783 780 776 775 762 760 759 760 761 760 761 762 762 764 762 762 760 764 755 751 748 745 746 739 735 739 738 729 726 717 709 709
817 814 810 806 802 799 795 792 789 787 786 784 783 780 776 775 775 759 758 758 759 760 760 761 761 763 765 767 758 767 755 753 749 746 747 747 738 734 735 728 720 711 716 713 714
816 812 808 803 799 795 792 789 786 785 783 782 780 778 776 776 766 757 757 758 759 760 759 759 763 763 769 763 759 760 754 748 745 743 741 741 738 732 725 714 716 705 711 712 711
815 810 806 801 796 792 788 785 783 782 781 780 778 777 777 776 756 755 756 757 758 758 757 758 759 758 763 765 766 757 755 752 745 745 742 743 735 731 710 709 711 709 699 708 704
813 808 803 798 793 788 783 780 779 779 778 778 777 776 777 767 755 756 756 755 755 755 756 754 754 757 761 766 756 757 761 752 747 742 744 738 739 729 716 711 711 710 700 698 701
811 806 800 794 789 784 779 775 775 775 776 776 775 776 772 754 754 755 755 754 754 753 753 752 752 755 759 759 761 765 763 770 748 743 738 741 739 714 714 718 712 709 702 695 699
810 804 797 791 785 779 774 772 770 770 772 773 775 775 769 754 754 753 753 753 752 751 750 750 751 758 760 772 782 772 781 770 761 743 741 742 736 718 713 715 711 703 703 697 692
807 800 794 788 782 776 771 769 767 767 769 772 773 778 760 755 751 751 751 751 751 751 751 750 758 768 775 781 792 777 773 764 761 746 741 744 736 726 719 719 717 713 706 700 692
804 797 790 784 779 775 770 768 770 771 768 767 764 762 754 752 751 749 749 749 750 755 765 757 770 778 771 769 762 763 763 764 753 742 742 742 733 723 719 717 719 715 709 705 696
801 794 787 781 777 775 774 772 769 770 770 757 755 756 753 751 753 749 748 754 756 766 762 771 774 759 755 754 756 758 762 762 749 740 741 742 728 715 716 716 713 712 708 703 696
798 792 784 778 775 774 774 770 769 767 774 756 748 749 748 746 751 750 747 749 756 762 764 771 764 751 752 756 757 760 764 764 764 749 745 744 732 721 710 711 709 708 706 701 697
795 789 783 775 777 774 772 770 768 765 784 762 749 745 743 744 751 740 743 749 754 761 759 764 752 753 755 757 757 766 757 756 756 762 771 750 754 730 719 712 710 706 704 700 692
790 785 781 779 776 776 774 768 767 767 790 750 748 740 740 748 743 740 738 744 756 753 758 762 755 756 758 758 753 760 755 756 754 757 760 753 764 721 718 717 710 703 697 693 687
784 781 777 777 777 773 770 767 767 785 782 754 747 749 751 746 744 738 739 739 738 749 749 752 743 748 752 750 749 751 755 757 759 759 768 746 754 708 720 713 704 701 703 697 693
778 776 775 776 775 772 769 767 786 790 749 762 761 753 753 749 745 738 741 746 757 761 761 753 750 745 747 755 753 757 769 787 781 773 764 739 746 723 708 711 718 713 704 696 690
776 774 774 775 774 773 770 779 788 768 768 757 760 755 756 754 752 749 751 758 751 755 768 775 774 749 750 754 759 762 768 798 786 770 759 749 744 724 712 708 708 706 702 692 686
777 774 773 774 775 774 780 794 785 774 766 765 760 763 762 759 760 760 759 756 758 760 771 774 766 745 745 745 752 756 766 756 778 763 764 749 726 708 705 705 699 697 691 687 680
781 778 775 774 774 774 789 787 775 764 760 764 775 766 771 766 766 769 764 755 758 758 760 768 770 747 745 745 741 749 748 769 780 768 754 734 727 724 711 707 701 693 690 682 677
785 785 776 775 775 783 799 787 774 763 760 766 771 772 770 774 771 771 766 759 757 759 759 767 770 760 754 751 746 753 755 759 766 764 750 748 735 714 711 703 703 695 686 679 673
792 791 777 777 789 795 791 781 774 770 764 762 762 767 770 771 772 770 769 763 756 759 764 770 776 779 758 738 739 743 747 755 767 756 752 748 732 698 702 696 696 687 677 672 666
803 797 780 778 808 801 786 779 774 772 769 773 769 766 764 771 777 766 762 756 755 761 766 769 782 774 758 746 745 743 744 745 747 750 749 746 721 693 696 695 690 686 676 667 658
803 803 793 789 792 792 796 786 779 769 771 773 774 770 774 775 772 774 768 758 758 757 758 767 775 775 767 748 742 748 742 740 744 754 735 723 712 698 685 684 679 675 663 657 649
806 812 811 810 800 801 796 786 782 779 773 773 775 776 782 785 781 774 766 763 757 753 765 769 768 766 751 744 738 736 735 728 725 721 727 706 704 691 685 675 669 667 654 652 642
815 818 815 815 805 799 793 789 785 781 778 776 776 774 775 783 781 776 772 770 769 757 758 769 761 756 745 732 726 726 720 715 706 704 702 700 697 678 676 669 667 665 656 649 642
815 814 813 812 808 802 800 797 788 786 777 774 777 775 774 770 764 761 758 757 756 757 761 771 767 761 743 727 723 721 708 706 706 700 705 707 692 687 680 676 676 668 663 654 648
Wind_Speed
18 18 18 18 18 18 18 17 16 15 15 16 17 20 22 22 24 15 6 7 5 6 10 11 11 9 6 3 3 1 4 10 12 12 11 9 8 15 6 8 10 9 7 5 19
19 19 19 19 19 19 18 18 17 16 16 17 18 20 22 22 19 8 5 6 8 10 7 3 2 5 2 5 3 5 5 8 6 10 12 14 17 19 17 17 18 12 14 21 18
20 20 20 21 21 20 19 19 17 17 16 16 18 20 20 17 4 4 7 5 4 1 3 3 5 2 3 4 5 4 11 7 7 9 8 14 22 15 16 17 15 9 10 9 11
23 22 22 22 21 21 20 19 18 17 17 16 18 20 17 0 2 4 3 5 4 3 2 2 2 1 2 4 5 7 10 7 10 15 15 19 19 21 18 21 13 17 3 5 6
25 25 25 25 24 22 21 20 19 17 16 16 18 14 5 2 7 8 5 4 6 6 5 3 1 1 2 4 5 6 9 9 11 12 16 17 21 23 24 22 14 22 7 5 3
27 27 26 26 27 25 23 20 18 17 14 16 14 6 1 3 3 5 3 8 10 9 6 7 2 3 2 2 1 5 7 9 7 9 6 8 13 12 27 20 14 16 21 7 6
27 28 27 29 29 28 25 20 18 15 12 13 8 1 2 10 3 8 4 6 7 10 5 6 4 4 3 8 3 7 7 9 6 3 4 7 16 23 14 10 12 11 19 8 7
31 30 32 30 30 28 26 20 15 12 11 6 2 2 6 5 6 5 2 5 7 9 8 9 8 3 3 2 7 6 4 4 3 7 5 8 24 22 12 10 17 11 13 16 7
32 32 33 31 31 28 25 17 14 13 7 3 1 3 8 10 3 6 2 4 10 9 11 11 4 5 1 2 4 3 4 6 7 6 6 6 16 8 8 8 16 18 9 16 15
34 35 35 34 30 27 21 17 6 4 4 3 4 2 6 2 8 3 3 2 2 5 7 1 3 3 2 3 4 6 5 6 4 5 1 7 15 8 6 6 8 10 11 14 17
36 35 35 34 26 23 19 3 5 3 2 6 5 5 9 10 1 2 1 1 3 5 3 4 3 4 11 9 12 7 10 7 5 8 6 8 15 14 6 6 8 9 12 13 15
37 36 36 33 23 14 8 1 2 5 7 9 12 14 22 18 4 5 11 3 2 3 6 6 3 3 5 7 6 8 5 7 6 7 11 12 21 18 8 6 7 10 11 11 13
35 34 34 28 14 5 5 9 9 8 2 7 5 5 6 8 4 7 3 3 4 2 4 3 7 8 8 6 7 5 5 8 8 12 8 6 17 16 15 5 6 8 9 10 10
36 34 30 25 3 12 3 17 8 3 3 5 4 4 4 4 4 10 11 7 3 5 4 6 7 5 7 3 3 3 7 10 12 9 4 3 13 16 12 14 7 9 8 11 11
37 31 26 8 9 6 16 17 14 3 3 7 4 6 3 5 2 4 17 3 7 7 5 10 5 11 3 1 2 6 6 6 9 10 4 9 6 14 5 13 15 13 15 11 12
37 25 17 1 7 9 20 19 4 3 2 2 3 3 2 5 8 3 9 2 5 6 3 8 3 4 5 2 1 3 4 6 4 3 6 9 8 26 12 10 14 12 13 14 16
29 15 7 3 2 13 20 4 4 4 9 5 6 6 7 4 5 5 6 3 3 1 2 3 3 3 3 1 3 1 4 4 5 3 5 2 5 19 9 3 2 9 12 12 12
22 8 6 4 7 15 11 4 6 10 11 9 8 9 2 12 6 8 5 4 7 6 1 3 6 2 2 4 5 5 6 4 4 6 10 13 7 5 7 3 3 7 9 10 8
14 6 4 3 5 9 5 5 1 5 6 7 7 3 5 10 6 8 6 3 5 6 2 3 5 8 6 3 2 2 4 7 3 3 5 5 7 6 5 6 9 10 10 13 13
10 8 4 3 1 6 5 2 3 8 1 4 3 4 5 8 5 7 4 6 4 4 2 3 7 4 2 5 9 6 2 2 2 3 5 5 5 6 8 8 10 13 12 14 14
5 3 2 1 4 5 3 4 5 13 2 1 3 5 4 3 4 4 4 7 9 2 5 1 2 5 4 5 13 3 2 2 2 3 4 5 5 6 8 10 8 12 13 12 16
7 2 1 1 4 1 1 5 7 10 7 3 1 3 2 2 3 3 5 3 6 0 3 1 1 4 10 20 9 4 4 5 3 3 3 3 8 10 11 12 7 11 15 15 15
3 3 3 1 2 4 5 5 3 5 7 6 5 3 2 2 3 3 3 5 7 2 3 1 1 5 7 3 3 2 4 4 4 2 6 4 8 5 11 10 8 9 13 17 15
2 4 4 4 1 2 5 5 6 5 2 4 3 6 6 4 2 5 7 4 11 7 8 5 2 6 7 15 10 13 15 15 9 4 6 14 19 17 20 15 11 11 11 12 14
3 1 1 4 3 5 3 3 6 6 2 3 3 2 3 3 5 5 3 12 11 11 4 6 5 10 19 21 20 19 19 21 16 15 12 18 16 17 9 17 11 13 13 13 15
2 3 4 4 6 5 4 4 5 9 3 4 3 6 1 4 8 16 12 4 7 5 4 3 5 6 15 18 16 17 18 20 19 14 9 5 11 11 11 10 10 13 14 15 15
6 4 1 4 5 3 1 4 7 7 7 5 7 5 5 11 11 12 13 12 11 11 5 5 3 3 5 8 13 6 4 4 3 2 3 6 10 9 16 17 16 19 20 13 18
Wind_Direction
347 345 342 339 335 333 329 328 327 323 322 324 327 331 333 330 322 325 234 225 241 276 283 301 296 269 254 236 222 296 204 227 227 237 250 334 309 300 300 326 318 331 328 105 150
346 344 341 338 334 330 326 325 326 324 322 324 327 331 335 330 324 254 214 207 241 265 272 317 294 359 226 216 218 183 210 223 246 248 287 310 298 299 329 327 315 351 349 55 154
345 343 342 338 334 330 326 323 322 321 321 323 326 330 333 329 301 262 177 220 221 283 245 274 281 245 197 237 231 214 244 258 275 286 295 291 288 306 305 300 296 319 353 13 59
345 342 339 336 333 330 326 322 319 318 319 322 327 333 337 338 147 225 213 174 195 244 279 293 303 277 229 237 223 252 263 260 261 264 269 272 287 281 280 270 275 287 213 315 87
341 339 337 336 333 328 323 319 315 313 317 324 327 338 358 309 250 203 191 199 217 244 226 188 281 209 227 252 326 258 277 273 267 261 250 258 264 272 279 276 283 288 264 219 273
340 338 334 332 331 327 322 315 309 310 318 325 332 347 23 286 242 190 223 228 236 221 255 172 221 252 206 309 347 303 302 290 295 289 280 288 288 284 270 283 277 273 284 193 241
341 336 334 331 328 325 319 312 305 309 315 326 327 336 252 241 171 226 233 268 294 218 234 275 297 75 20 331 332 305 307 316 293 269 285 280 279 259 279 311 284 264 284 266 209
349 346 340 332 328 323 319 309 308 306 307 324 337 186 252 261 286 290 223 338 327 332 310 292 281 172 153 263 335 324 324 327 310 351 277 161 262 264 271 280 281 274 277 279 218
350 348 342 335 331 325 318 317 309 297 292 278 228 173 270 323 201 162 263 242 289 292 282 277 142 176 8 77 350 323 258 266 306 238 232 175 269 293 320 272 274 279 271 282 279
348 347 345 340 335 329 324 326 332 325 104 129 257 325 275 274 182 199 261 249 256 314 323 294 91 122 11 95 240 253 262 268 279 290 35 289 275 283 298 316 296 300 295 281 275
346 344 342 340 340 333 334 22 13 16 114 209 203 249 305 313 58 260 232 224 4 38 358 305 76 211 247 227 244 263 271 270 284 297 281 275 276 286 281 302 306 300 301 299 292
345 342 340 338 339 329 328 327 239 261 304 244 238 250 261 273 243 275 298 153 86 284 335 8 287 242 282 311 314 312 311 309 275 304 305 302 288 284 270 253 265 275 280 284 296
344 341 340 337 336 6 305 277 325 11 350 297 214 216 228 186 207 240 166 154 223 281 319 198 252 295 316 317 330 337 353 348 335 324 333 329 288 292 293 247 278 286 272 280 271
345 341 341 338 360 335 268 350 347 350 50 274 155 216 146 141 266 221 186 175 200 218 241 253 251 269 288 299 42 335 348 331 321 329 279 6 285 286 289 289 267 281 284 282 283
344 341 336 334 310 325 331 335 331 49 47 169 159 185 190 172 292 241 183 155 207 223 123 250 278 278 294 5 327 268 333 306 306 286 297 262 263 286 327 295 298 289 276 270 275
340 343 330 342 307 340 346 334 6 40 17 84 82 359 12 241 254 246 171 201 215 211 210 238 240 133 168 225 286 311 318 318 326 222 247 275 220 277 256 272 276 329 347 337 336
343 351 315 248 258 343 342 13 56 72 337 21 13 339 318 307 312 313 186 231 271 42 2 325 325 96 118 329 331 157 14 327 331 346 241 8 296 260 270 64 107 318 314 313 313
350 33 17 294 325 337 344 51 63 355 26 24 352 315 345 21 10 353 27 357 49 50 81 176 322 313 81 213 257 241 181 165 258 280 289 290 249 266 80 47 287 276 271 295 305
4 24 36 54 4 338 62 54 116 0 355 346 332 310 5 21 351 4 342 24 45 53 61 316 260 325 285 15 73 253 193 206 188 231 262 236 278 279 45 341 332 322 319 309 315
351 345 320 126 331 37 69 293 330 317 50 1 10 349 343 1 25 14 306 57 2 80 114 327 300 186 282 331 267 181 211 272 10 286 251 260 270 257 313 302 310 315 313 300 307
9 21 317 65 347 50 107 254 322 345 107 123 255 269 324 11 343 348 298 325 24 15 97 91 194 276 3 237 281 312 222 59 126 201 267 295 259 230 247 260 266 282 290 297 299
353 36 202 293 43 52 341 320 321 356 340 329 22 69 136 300 268 280 227 244 353 145 23 51 249 282 278 278 280 239 213 159 194 210 230 257 259 258 224 244 248 284 304 299 277
339 273 17 305 60 337 314 324 316 324 2 29 325 17 168 247 303 245 301 319 310 95 140 240 287 301 315 27 322 121 224 225 231 209 223 254 264 233 250 253 251 276 296 284 279
31 4 329 30 73 85 4 290 319 295 74 44 328 2 10 349 4 298 305 309 338 314 149 134 220 229 255 277 284 282 282 277 231 206 248 249 277 295 289 280 243 254 252 268 283
32 11 130 306 329 330 219 295 329 359 33 63 329 358 90 296 297 246 304 316 317 290 106 132 258 253 258 265 271 269 269 273 266 242 239 271 271 286 287 306 241 235 292 301 300
74 30 354 299 301 317 345 345 339 336 293 289 227 286 216 231 232 280 275 276 246 272 182 148 271 279 284 268 263 266 267 261 254 264 265 289 280 248 312 300 287 258 293 305 316
5 342 33 282 316 350 234 329 316 340 294 29 328 304 283 276 268 259 252 249 240 258 216 162 241 259 263 302 302 282 308 319 312 307 303 277 274 343 327 323 334 319 311 347 354